| time (UTC) | temp F | wind direction | speed MPH | gust MPH | rain 1hr in | rain 24hr in | rain mn in | humidity % | barometer mb |
| 20260904103558 | 74 | 0 | 0.0 | 3.0 | 0.00 | 0.00 | 0.00 | 87 | 1015.6 |
| 20260904103108 | 74 | 0 | 0.0 | 3.0 | 0.00 | 0.00 | 0.00 | 88 | 1015.6 |
| 20260904102558 | 73 | 0 | 0.0 | 2.0 | 0.00 | 0.00 | 0.00 | 87 | 1015.4 |
| 20260904102058 | 73 | 0 | 0.0 | 0.0 | 0.00 | 0.00 | 0.00 | 87 | 1015.4 |
| 20260904101605 | 73 | 0 | 0.0 | 2.0 | 0.00 | 0.00 | 0.00 | 87 | 1015.3 |
| 20260904101057 | 73 | 0 | 0.0 | 2.0 | 0.00 | 0.00 | 0.00 | 87 | 1015.3 |
| 20260904100557 | 73 | 270 | 0.0 | 1.0 | 0.00 | 0.00 | 0.00 | 87 | 1015.3 |
| 20260904100105 | 73 | 0 | 0.0 | 1.0 | 0.00 | 0.00 | 0.00 | 87 | 1015.3 |
| 20260904095600 | 73 | 0 | 0.0 | 1.0 | 0.00 | 0.00 | 0.00 | 87 | 1015.5 |
| 20260904095059 | 73 | 0 | 0.0 | 1.0 | 0.00 | 0.00 | 0.00 | 87 | 1015.5 |
| 20260904094605 | 74 | 0 | 0.0 | 2.0 | 0.00 | 0.00 | 0.00 | 87 | 1015.5 |
| 20260904094058 | 74 | 0 | 0.0 | 3.0 | 0.00 | 0.00 | 0.00 | 87 | 1015.5 |
| 20260904093559 | 74 | 0 | 0.0 | 3.0 | 0.00 | 0.00 | 0.00 | 87 | 1015.5 |
| 20260904093112 | 74 | 0 | 0.0 | 0.0 | 0.00 | 0.00 | 0.00 | 86 | 1015.4 |
| 20260904092558 | 74 | 0 | 0.0 | 0.0 | 0.00 | 0.00 | 0.00 | 86 | 1015.4 |
| 20260904092058 | 74 | 0 | 0.0 | 0.0 | 0.00 | 0.00 | 0.00 | 86 | 1015.3 |
| 20260904091605 | 74 | 0 | 0.0 | 0.0 | 0.00 | 0.00 | 0.00 | 86 | 1015.3 |
| 20260904091058 | 74 | 0 | 0.0 | 0.0 | 0.00 | 0.00 | 0.00 | 86 | 1015.3 |
| 20260904090557 | 74 | 0 | 0.0 | 0.0 | 0.00 | 0.00 | 0.00 | 86 | 1015.3 |
| 20260904090105 | 74 | 0 | 0.0 | 0.0 | 0.00 | 0.00 | 0.00 | 86 | 1015.5 |
| 20260904085558 | 74 | 0 | 0.0 | 3.0 | 0.00 | 0.00 | 0.00 | 87 | 1015.4 |
| 20260904085058 | 74 | 0 | 0.0 | 3.0 | 0.00 | 0.00 | 0.00 | 87 | 1015.5 |
| 20260904084602 | 74 | 242 | 0.0 | 3.0 | 0.00 | 0.00 | 0.00 | 87 | 1015.5 |
| 20260904084058 | 73 | 0 | 0.0 | 3.0 | 0.00 | 0.00 | 0.00 | 87 | 1015.3 |
| 20260904083558 | 73 | 0 | 0.0 | 3.0 | 0.00 | 0.00 | 0.00 | 87 | 1015.4 |
| 20260904083106 | 73 | 0 | 0.0 | 0.0 | 0.00 | 0.00 | 0.00 | 87 | 1015.5 |
| 20260904082558 | 73 | 0 | 0.0 | 0.0 | 0.00 | 0.00 | 0.00 | 87 | 1015.5 |
| 20260904082103 | 73 | 0 | 0.0 | 0.0 | 0.00 | 0.00 | 0.00 | 87 | 1015.6 |
| 20260904081604 | 73 | 0 | 0.0 | 0.0 | 0.00 | 0.00 | 0.00 | 87 | 1015.6 |
| 20260904081058 | 73 | 0 | 0.0 | 0.0 | 0.00 | 0.00 | 0.00 | 87 | 1015.7 |
| 20260904080558 | 73 | 0 | 0.0 | 0.0 | 0.00 | 0.00 | 0.00 | 87 | 1015.7 |
| 20260904080100 | 73 | 0 | 0.0 | 0.0 | 0.00 | 0.00 | 0.00 | 87 | 1015.8 |
| 20260904075558 | 73 | 0 | 0.0 | 0.0 | 0.00 | 0.00 | 0.00 | 87 | 1015.8 |
| 20260904075058 | 73 | 0 | 0.0 | 0.0 | 0.00 | 0.00 | 0.00 | 87 | 1015.8 |
| 20260904074603 | 73 | 0 | 0.0 | 0.0 | 0.00 | 0.00 | 0.00 | 87 | 1015.8 |
| 20260904074058 | 73 | 0 | 0.0 | 0.0 | 0.00 | 0.00 | 0.00 | 87 | 1015.8 |
| 20260904073558 | 73 | 0 | 0.0 | 0.0 | 0.00 | 0.00 | 0.00 | 87 | 1015.9 |
| 20260904073106 | 73 | 0 | 0.0 | 0.0 | 0.00 | 0.00 | 0.00 | 86 | 1016.0 |
| 20260904072557 | 73 | 0 | 0.0 | 0.0 | 0.00 | 0.00 | 0.00 | 86 | 1016.0 |
| 20260904072058 | 73 | 0 | 0.0 | 0.0 | 0.00 | 0.00 | 0.00 | 86 | 1015.9 |
| 20260904071600 | 73 | 0 | 0.0 | 0.0 | 0.00 | 0.00 | 0.00 | 86 | 1016.0 |
| 20260904071058 | 74 | 0 | 0.0 | 0.0 | 0.00 | 0.00 | 0.00 | 86 | 1016.0 |
| 20260904070559 | 74 | 0 | 0.0 | 1.0 | 0.00 | 0.00 | 0.00 | 86 | 1016.1 |
| 20260904070106 | 74 | 0 | 0.0 | 1.0 | 0.00 | 0.00 | 0.00 | 86 | 1016.0 |
| 20260904065558 | 74 | 0 | 0.0 | 0.0 | 0.00 | 0.00 | 0.00 | 86 | 1016.0 |
| 20260904065058 | 74 | 0 | 0.0 | 0.0 | 0.00 | 0.00 | 0.00 | 85 | 1016.1 |
| 20260904064605 | 74 | 0 | 0.0 | 0.0 | 0.00 | 0.00 | 0.00 | 85 | 1016.3 |
| 20260904064058 | 74 | 0 | 0.0 | 0.0 | 0.00 | 0.00 | 0.00 | 85 | 1016.3 |
| 20260904063558 | 74 | 0 | 0.0 | 0.0 | 0.00 | 0.00 | 0.00 | 85 | 1016.4 |
| 20260904063123 | 74 | 0 | 0.0 | 0.0 | 0.00 | 0.00 | 0.00 | 85 | 1016.3 |
| 20260904062600 | 74 | 0 | 0.0 | 0.0 | 0.00 | 0.00 | 0.00 | 85 | 1016.3 |
| 20260904062058 | 74 | 0 | 0.0 | 0.0 | 0.00 | 0.00 | 0.00 | 85 | 1016.4 |
| 20260904061600 | 74 | 0 | 0.0 | 0.0 | 0.00 | 0.00 | 0.00 | 85 | 1016.3 |
| 20260904061101 | 74 | 0 | 0.0 | 0.0 | 0.00 | 0.00 | 0.00 | 85 | 1016.4 |
| 20260904060558 | 74 | 0 | 0.0 | 0.0 | 0.00 | 0.00 | 0.00 | 85 | 1016.3 |
| 20260904060104 | 74 | 0 | 0.0 | 0.0 | 0.00 | 0.00 | 0.00 | 85 | 1016.5 |
| 20260904055558 | 74 | 0 | 0.0 | 0.0 | 0.00 | 0.00 | 0.00 | 85 | 1016.6 |
| 20260904055058 | 74 | 0 | 0.0 | 0.0 | 0.00 | 0.00 | 0.00 | 84 | 1016.7 |
| 20260904054610 | 74 | 0 | 0.0 | 0.0 | 0.00 | 0.00 | 0.00 | 84 | 1016.6 |
| 20260904054057 | 75 | 0 | 0.0 | 0.0 | 0.00 | 0.00 | 0.00 | 84 | 1016.6 |
| 20260904053559 | 75 | 0 | 0.0 | 0.0 | 0.00 | 0.00 | 0.00 | 84 | 1016.6 |
| 20260904053101 | 75 | 0 | 0.0 | 0.0 | 0.00 | 0.00 | 0.00 | 84 | 1016.6 |
| 20260904052558 | 75 | 0 | 0.0 | 0.0 | 0.00 | 0.00 | 0.00 | 84 | 1016.6 |
| 20260904052059 | 75 | 0 | 0.0 | 0.0 | 0.00 | 0.00 | 0.00 | 84 | 1016.6 |
| 20260904051610 | 75 | 0 | 0.0 | 0.0 | 0.00 | 0.00 | 0.00 | 84 | 1016.6 |
| 20260904051058 | 75 | 0 | 0.0 | 0.0 | 0.00 | 0.00 | 0.00 | 84 | 1016.7 |
| 20260904050558 | 75 | 0 | 0.0 | 0.0 | 0.00 | 0.00 | 0.00 | 84 | 1016.7 |
| 20260904050106 | 75 | 0 | 0.0 | 3.0 | 0.00 | 0.00 | 0.00 | 84 | 1016.7 |
| 20260904045558 | 75 | 0 | 0.0 | 3.0 | 0.00 | 0.00 | 0.00 | 84 | 1016.7 |
| 20260904045058 | 75 | 0 | 0.0 | 2.0 | 0.00 | 0.00 | 0.00 | 84 | 1016.7 |
| 20260904044606 | 74 | 0 | 0.0 | 0.0 | 0.00 | 0.00 | 0.00 | 84 | 1016.6 |
| 20260904044101 | 74 | 0 | 0.0 | 0.0 | 0.00 | 0.00 | 0.00 | 84 | 1016.6 |
| 20260904043600 | 75 | 0 | 0.0 | 0.0 | 0.00 | 0.00 | 0.00 | 84 | 1016.6 |
| 20260904043109 | 75 | 0 | 0.0 | 0.0 | 0.00 | 0.00 | 0.00 | 83 | 1016.6 |
| 20260904042558 | 75 | 0 | 0.0 | 0.0 | 0.00 | 0.00 | 0.00 | 84 | 1016.5 |
| 20260904042059 | 75 | 0 | 0.0 | 0.0 | 0.00 | 0.00 | 0.00 | 84 | 1016.6 |
| 20260904041603 | 75 | 0 | 0.0 | 0.0 | 0.00 | 0.00 | 0.00 | 83 | 1016.5 |
| 20260904041058 | 75 | 0 | 0.0 | 0.0 | 0.00 | 0.00 | 0.00 | 83 | 1016.6 |
| 20260904040602 | 75 | 0 | 0.0 | 0.0 | 0.00 | 0.00 | 0.00 | 83 | 1016.4 |
| 20260904040107 | 75 | 0 | 0.0 | 0.0 | 0.00 | 0.00 | 0.00 | 83 | 1016.5 |
| 20260904035559 | 75 | 0 | 0.0 | 0.0 | 0.00 | 0.00 | 0.00 | 83 | 1016.4 |
| 20260904035100 | 75 | 0 | 0.0 | 0.0 | 0.00 | 0.00 | 0.00 | 83 | 1016.2 |
| 20260904034603 | 75 | 0 | 0.0 | 0.0 | 0.00 | 0.00 | 0.00 | 83 | 1016.2 |
| 20260904034058 | 75 | 0 | 0.0 | 0.0 | 0.00 | 0.00 | 0.00 | 83 | 1016.1 |
| 20260904033558 | 75 | 0 | 0.0 | 0.0 | 0.00 | 0.00 | 0.00 | 83 | 1016.2 |
| 20260904033105 | 75 | 0 | 0.0 | 0.0 | 0.00 | 0.00 | 0.00 | 83 | 1016.3 |
| 20260904032557 | 75 | 0 | 0.0 | 0.0 | 0.00 | 0.00 | 0.00 | 83 | 1016.3 |
| 20260904032057 | 75 | 0 | 0.0 | 0.0 | 0.00 | 0.00 | 0.00 | 83 | 1016.6 |
| 20260904031608 | 75 | 0 | 0.0 | 0.0 | 0.00 | 0.00 | 0.00 | 83 | 1016.7 |
| 20260904031058 | 75 | 0 | 0.0 | 0.0 | 0.00 | 0.00 | 0.00 | 83 | 1016.5 |
| 20260904030558 | 75 | 0 | 0.0 | 0.0 | 0.00 | 0.00 | 0.00 | 83 | 1016.6 |
| 20260904030107 | 75 | 0 | 0.0 | 0.0 | 0.00 | 0.00 | 0.00 | 83 | 1016.6 |
| 20260904025603 | 75 | 0 | 0.0 | 0.0 | 0.00 | 0.00 | 0.00 | 83 | 1016.5 |
| 20260904025058 | 75 | 0 | 0.0 | 0.0 | 0.00 | 0.00 | 0.00 | 83 | 1016.6 |
| 20260904024606 | 76 | 0 | 0.0 | 0.0 | 0.00 | 0.00 | 0.00 | 82 | 1016.6 |
| 20260904024100 | 76 | 0 | 0.0 | 0.0 | 0.00 | 0.00 | 0.00 | 82 | 1016.6 |
| 20260904023558 | 76 | 0 | 0.0 | 0.0 | 0.00 | 0.00 | 0.00 | 82 | 1016.7 |
| 20260904023105 | 76 | 0 | 0.0 | 3.0 | 0.00 | 0.00 | 0.00 | 82 | 1016.7 |
| 20260904022558 | 76 | 0 | 0.0 | 4.0 | 0.00 | 0.00 | 0.00 | 81 | 1016.8 |
| 20260904022101 | 77 | 351 | 1.0 | 5.0 | 0.00 | 0.00 | 0.00 | 80 | 1016.8 |
| 20260904021609 | 77 | 0 | 2.0 | 5.0 | 0.00 | 0.00 | 0.00 | 80 | 1016.8 |
| 20260904021100 | 77 | 0 | 1.0 | 9.0 | 0.00 | 0.00 | 0.00 | 79 | 1016.6 |
| 20260904020559 | 78 | 0 | 1.0 | 11.0 | 0.00 | 0.00 | 0.00 | 78 | 1016.6 |
| 20260904020118 | 79 | 53 | 3.0 | 11.0 | 0.00 | 0.00 | 0.00 | 76 | 1016.5 |
| 20260904015600 | 80 | 42 | 5.0 | 14.0 | 0.00 | 0.00 | 0.00 | 75 | 1016.4 |
| 20260904015058 | 81 | 51 | 6.0 | 14.0 | 0.00 | 0.00 | 0.00 | 74 | 1016.5 |
| 20260904014627 | 82 | 44 | 5.0 | 11.0 | 0.00 | 0.00 | 0.00 | 72 | 1016.4 |
| 20260904014058 | 83 | 275 | 1.0 | 7.0 | 0.00 | 0.00 | 0.00 | 71 | 1016.0 |
| 20260904013558 | 83 | 252 | 2.0 | 7.0 | 0.00 | 0.00 | 0.00 | 71 | 1015.9 |
| 20260904013104 | 83 | 262 | 2.0 | 8.0 | 0.00 | 0.00 | 0.00 | 70 | 1015.8 |
| 20260904012600 | 83 | 244 | 3.0 | 8.0 | 0.00 | 0.00 | 0.00 | 70 | 1015.9 |
| 20260904012101 | 83 | 273 | 2.0 | 8.0 | 0.00 | 0.00 | 0.00 | 70 | 1016.0 |
| 20260904011603 | 83 | 276 | 2.0 | 8.0 | 0.00 | 0.00 | 0.00 | 70 | 1016.0 |
| 20260904011102 | 83 | 261 | 3.0 | 8.0 | 0.00 | 0.00 | 0.00 | 71 | 1015.9 |
| 20260904010600 | 83 | 236 | 3.0 | 6.0 | 0.00 | 0.00 | 0.00 | 71 | 1015.9 |
| 20260904010104 | 83 | 242 | 1.0 | 5.0 | 0.00 | 0.00 | 0.00 | 71 | 1015.9 |
| 20260904005558 | 83 | 0 | 1.0 | 7.0 | 0.00 | 0.00 | 0.00 | 71 | 1016.1 |
| 20260904005058 | 83 | 229 | 3.0 | 7.0 | 0.00 | 0.00 | 0.00 | 71 | 1016.0 |
| 20260904004608 | 84 | 246 | 1.0 | 5.0 | 0.00 | 0.00 | 0.00 | 71 | 1016.2 |
| 20260904004058 | 84 | 0 | 0.0 | 4.0 | 0.00 | 0.00 | 0.00 | 70 | 1016.1 |
| 20260904003601 | 84 | 0 | 1.0 | 4.0 | 0.00 | 0.00 | 0.00 | 69 | 1016.1 |
| 20260904003104 | 84 | 0 | 0.0 | 5.0 | 0.00 | 0.00 | 0.00 | 69 | 1016.0 |
| 20260904002558 | 85 | 0 | 1.0 | 5.0 | 0.00 | 0.00 | 0.00 | 68 | 1015.8 |
| 20260904002059 | 85 | 246 | 1.0 | 6.0 | 0.00 | 0.00 | 0.00 | 68 | 1015.7 |
| 20260904001600 | 85 | 0 | 1.0 | 6.0 | 0.00 | 0.00 | 0.00 | 67 | 1015.8 |
| 20260904001102 | 86 | 0 | 1.0 | 5.0 | 0.00 | 0.00 | 0.00 | 67 | 1015.8 |
| 20260904000558 | 86 | 268 | 1.0 | 4.0 | 0.00 | 0.00 | 0.00 | 66 | 1015.9 |
| 20260904000123 | 86 | 268 | 2.0 | 6.0 | 0.00 | 0.00 | 0.00 | 65 | 1016.0 |
| 20260903235601 | 87 | 0 | 2.0 | 6.0 | 0.00 | 0.00 | 0.00 | 64 | 1016.0 |
| 20260903235057 | 87 | 273 | 2.0 | 4.0 | 0.00 | 0.00 | 0.00 | 64 | 1015.9 |
| 20260903234603 | 87 | 278 | 1.0 | 8.0 | 0.00 | 0.00 | 0.00 | 64 | 1016.0 |
| 20260903234058 | 87 | 271 | 2.0 | 8.0 | 0.00 | 0.00 | 0.00 | 63 | 1015.9 |
| 20260903233600 | 88 | 278 | 3.0 | 8.0 | 0.00 | 0.00 | 0.00 | 62 | 1015.8 |
| 20260903233105 | 88 | 279 | 3.0 | 7.0 | 0.00 | 0.00 | 0.00 | 62 | 1015.8 |
| 20260903232558 | 89 | 257 | 1.0 | 6.0 | 0.00 | 0.00 | 0.00 | 62 | 1015.7 |
| 20260903232058 | 89 | 271 | 2.0 | 8.0 | 0.00 | 0.00 | 0.00 | 61 | 1015.7 |
| 20260903231601 | 89 | 281 | 2.0 | 8.0 | 0.00 | 0.00 | 0.00 | 60 | 1015.6 |
| 20260903231101 | 90 | 267 | 3.0 | 8.0 | 0.00 | 0.00 | 0.00 | 59 | 1015.8 |
| 20260903230558 | 90 | 275 | 4.0 | 8.0 | 0.00 | 0.00 | 0.00 | 59 | 1015.7 |
| 20260903230107 | 90 | 273 | 3.0 | 7.0 | 0.00 | 0.00 | 0.00 | 59 | 1015.8 |
| 20260903225557 | 91 | 252 | 2.0 | 7.0 | 0.00 | 0.00 | 0.00 | 58 | 1015.8 |
| 20260903225057 | 91 | 257 | 3.0 | 10.0 | 0.00 | 0.00 | 0.00 | 58 | 1015.7 |
| 20260903224624 | 91 | 286 | 3.0 | 10.0 | 0.00 | 0.00 | 0.00 | 57 | 1015.7 |
| 20260903224058 | 91 | 274 | 3.0 | 10.0 | 0.00 | 0.00 | 0.00 | 56 | 1015.8 |
| 20260903223558 | 91 | 281 | 4.0 | 12.0 | 0.00 | 0.00 | 0.00 | 57 | 1015.8 |
| 20260903223104 | 91 | 255 | 3.0 | 12.0 | 0.00 | 0.00 | 0.00 | 57 | 1015.8 |
| 20260903222558 | 92 | 265 | 4.0 | 12.0 | 0.00 | 0.00 | 0.00 | 56 | 1015.8 |
| 20260903222058 | 92 | 273 | 7.0 | 12.0 | 0.00 | 0.00 | 0.00 | 55 | 1015.6 |
| 20260903221605 | 93 | 283 | 5.0 | 9.0 | 0.00 | 0.00 | 0.00 | 55 | 1015.7 |
| 20260903221057 | 93 | 273 | 3.0 | 9.0 | 0.00 | 0.00 | 0.00 | 53 | 1015.7 |
| 20260903220558 | 93 | 263 | 3.0 | 11.0 | 0.00 | 0.00 | 0.00 | 54 | 1015.5 |
| 20260903220104 | 93 | 267 | 5.0 | 13.0 | 0.00 | 0.00 | 0.00 | 53 | 1015.5 |
| 20260903215557 | 93 | 261 | 7.0 | 13.0 | 0.00 | 0.00 | 0.00 | 53 | 1015.5 |
| 20260903215058 | 93 | 275 | 5.0 | 13.0 | 0.00 | 0.00 | 0.00 | 52 | 1015.4 |
| 20260903214613 | 93 | 262 | 6.0 | 12.0 | 0.00 | 0.00 | 0.00 | 52 | 1015.4 |
| 20260903214058 | 94 | 273 | 7.0 | 13.0 | 0.00 | 0.00 | 0.00 | 52 | 1015.1 |
| 20260903213558 | 94 | 210 | 3.0 | 13.0 | 0.00 | 0.00 | 0.00 | 53 | 1014.9 |
| 20260903213113 | 94 | 281 | 7.0 | 13.0 | 0.00 | 0.00 | 0.00 | 51 | 1014.9 |
| 20260903212558 | 94 | 256 | 6.0 | 12.0 | 0.00 | 0.00 | 0.00 | 52 | 1014.7 |
| 20260903212058 | 94 | 275 | 5.0 | 14.0 | 0.00 | 0.00 | 0.00 | 53 | 1014.7 |
| 20260903211609 | 93 | 285 | 6.0 | 15.0 | 0.00 | 0.00 | 0.00 | 52 | 1014.7 |
| 20260903211100 | 93 | 240 | 8.0 | 15.0 | 0.00 | 0.00 | 0.00 | 50 | 1014.7 |
| 20260903210558 | 94 | 261 | 7.0 | 14.0 | 0.00 | 0.00 | 0.00 | 51 | 1014.5 |
| 20260903210127 | 94 | 281 | 6.0 | 11.0 | 0.00 | 0.00 | 0.00 | 54 | 1014.5 |
| 20260903205558 | 94 | 258 | 6.0 | 11.0 | 0.00 | 0.00 | 0.00 | 53 | 1014.4 |
| 20260903205057 | 94 | 276 | 6.0 | 11.0 | 0.00 | 0.00 | 0.00 | 53 | 1014.4 |
| 20260903204603 | 94 | 277 | 6.0 | 11.0 | 0.00 | 0.00 | 0.00 | 54 | 1014.4 |
| 20260903204058 | 94 | 261 | 6.0 | 13.0 | 0.00 | 0.00 | 0.00 | 54 | 1014.4 |
| 20260903203557 | 93 | 273 | 5.0 | 17.0 | 0.00 | 0.00 | 0.00 | 53 | 1014.4 |
| 20260903203114 | 94 | 271 | 7.0 | 17.0 | 0.00 | 0.00 | 0.00 | 53 | 1014.6 |
| 20260903202601 | 94 | 271 | 7.0 | 17.0 | 0.00 | 0.00 | 0.00 | 52 | 1014.7 |
| 20260903202100 | 95 | 240 | 6.0 | 12.0 | 0.00 | 0.00 | 0.00 | 51 | 1014.8 |
| 20260903201606 | 95 | 250 | 6.0 | 11.0 | 0.00 | 0.00 | 0.00 | 53 | 1014.9 |
| 20260903201100 | 95 | 289 | 6.0 | 11.0 | 0.00 | 0.00 | 0.00 | 52 | 1015.0 |
| 20260903200600 | 95 | 263 | 5.0 | 12.0 | 0.00 | 0.00 | 0.00 | 53 | 1015.2 |
| 20260903200111 | 95 | 292 | 5.0 | 12.0 | 0.00 | 0.00 | 0.00 | 54 | 1015.4 |
| 20260903195559 | 95 | 275 | 7.0 | 14.0 | 0.00 | 0.00 | 0.00 | 51 | 1015.6 |
| 20260903195057 | 95 | 291 | 4.0 | 14.0 | 0.00 | 0.00 | 0.00 | 52 | 1015.6 |
| 20260903194603 | 95 | 272 | 8.0 | 13.0 | 0.00 | 0.00 | 0.00 | 52 | 1015.9 |
| 20260903194100 | 95 | 293 | 4.0 | 16.0 | 0.00 | 0.00 | 0.00 | 52 | 1015.9 |
| 20260903193556 | 95 | 265 | 8.0 | 16.0 | 0.00 | 0.00 | 0.00 | 53 | 1016.0 |
| 20260903193102 | 95 | 265 | 7.0 | 13.0 | 0.00 | 0.00 | 0.00 | 52 | 1016.0 |
| 20260903192557 | 95 | 296 | 7.0 | 13.0 | 0.00 | 0.00 | 0.00 | 51 | 1016.1 |
| 20260903192100 | 95 | 269 | 6.0 | 15.0 | 0.00 | 0.00 | 0.00 | 52 | 1016.2 |
| 20260903191602 | 95 | 218 | 5.0 | 15.0 | 0.00 | 0.00 | 0.00 | 52 | 1016.2 |
| 20260903191100 | 95 | 269 | 8.0 | 15.0 | 0.00 | 0.00 | 0.00 | 51 | 1016.3 |
| 20260903190600 | 95 | 233 | 4.0 | 13.0 | 0.00 | 0.00 | 0.00 | 51 | 1016.2 |
| 20260903190104 | 95 | 248 | 5.0 | 13.0 | 0.00 | 0.00 | 0.00 | 52 | 1016.2 |
| 20260903185600 | 95 | 256 | 6.0 | 13.0 | 0.00 | 0.00 | 0.00 | 54 | 1016.2 |
| 20260903185100 | 95 | 271 | 6.0 | 13.0 | 0.00 | 0.00 | 0.00 | 52 | 1016.3 |
| 20260903184601 | 95 | 238 | 7.0 | 13.0 | 0.00 | 0.00 | 0.00 | 51 | 1016.4 |
| 20260903184101 | 95 | 241 | 6.0 | 13.0 | 0.00 | 0.00 | 0.00 | 52 | 1016.4 |
| 20260903183602 | 95 | 248 | 6.0 | 13.0 | 0.00 | 0.00 | 0.00 | 52 | 1016.5 |
| 20260903183104 | 95 | 254 | 4.0 | 13.0 | 0.00 | 0.00 | 0.00 | 51 | 1016.5 |
| 20260903182602 | 95 | 277 | 7.0 | 13.0 | 0.00 | 0.00 | 0.00 | 48 | 1016.6 |
| 20260903182056 | 95 | 242 | 6.0 | 17.0 | 0.00 | 0.00 | 0.00 | 49 | 1016.5 |
| 20260903181603 | 95 | 273 | 6.0 | 17.0 | 0.00 | 0.00 | 0.00 | 51 | 1016.7 |
| 20260903181100 | 95 | 265 | 6.0 | 13.0 | 0.00 | 0.00 | 0.00 | 53 | 1016.6 |
| 20260903180600 | 95 | 283 | 7.0 | 12.0 | 0.00 | 0.00 | 0.00 | 52 | 1016.7 |
| 20260903180104 | 96 | 302 | 6.0 | 11.0 | 0.00 | 0.00 | 0.00 | 50 | 1016.8 |
| 20260903175557 | 95 | 277 | 4.0 | 11.0 | 0.00 | 0.00 | 0.00 | 53 | 1016.7 |
| 20260903175100 | 95 | 289 | 6.0 | 11.0 | 0.00 | 0.00 | 0.00 | 51 | 1016.9 |
| 20260903174603 | 95 | 277 | 4.0 | 13.0 | 0.00 | 0.00 | 0.00 | 51 | 1016.9 |
| 20260903174059 | 95 | 240 | 6.0 | 13.0 | 0.00 | 0.00 | 0.00 | 53 | 1017.0 |
| 20260903173600 | 94 | 290 | 5.0 | 13.0 | 0.00 | 0.00 | 0.00 | 54 | 1017.0 |
| 20260903173106 | 94 | 0 | 7.0 | 13.0 | 0.00 | 0.00 | 0.00 | 55 | 1017.1 |
| 20260903172600 | 94 | 279 | 6.0 | 13.0 | 0.00 | 0.00 | 0.00 | 52 | 1017.1 |
| 20260903172100 | 94 | 302 | 6.0 | 13.0 | 0.00 | 0.00 | 0.00 | 56 | 1017.0 |
| 20260903171617 | 94 | 294 | 6.0 | 16.0 | 0.00 | 0.00 | 0.00 | 54 | 1017.1 |
| 20260903171056 | 94 | 256 | 7.0 | 16.0 | 0.00 | 0.00 | 0.00 | 57 | 1017.1 |
| 20260903170557 | 94 | 306 | 3.0 | 11.0 | 0.00 | 0.00 | 0.00 | 57 | 1017.2 |
| 20260903165556 | 95 | 207 | 5.0 | 12.0 | 0.00 | 0.00 | 0.00 | 53 | 1017.0 |
| 20260903165100 | 95 | 273 | 4.0 | 9.0 | 0.00 | 0.00 | 0.00 | 55 | 1017.1 |
| 20260903164627 | 95 | 277 | 4.0 | 9.0 | 0.00 | 0.00 | 0.00 | 56 | 1017.1 |
| 20260903164100 | 95 | 321 | 3.0 | 11.0 | 0.00 | 0.00 | 0.00 | 55 | 1017.3 |
| 20260903163559 | 94 | 278 | 4.0 | 11.0 | 0.00 | 0.00 | 0.00 | 55 | 1017.2 |
| 20260903163101 | 94 | 257 | 5.0 | 11.0 | 0.00 | 0.00 | 0.00 | 57 | 1017.3 |
| 20260903162600 | 94 | 296 | 5.0 | 10.0 | 0.00 | 0.00 | 0.00 | 55 | 1017.4 |
| 20260903162057 | 94 | 289 | 4.0 | 8.0 | 0.00 | 0.00 | 0.00 | 58 | 1017.4 |
| 20260903161603 | 94 | 315 | 2.0 | 8.0 | 0.00 | 0.00 | 0.00 | 57 | 1017.4 |
| 20260903161056 | 94 | 355 | 2.0 | 6.0 | 0.00 | 0.00 | 0.00 | 59 | 1017.5 |
| 20260903160559 | 93 | 0 | 2.0 | 9.0 | 0.00 | 0.00 | 0.00 | 60 | 1017.6 |
| 20260903160128 | 93 | 0 | 1.0 | 9.0 | 0.00 | 0.00 | 0.00 | 60 | 1017.5 |
| 20260903155604 | 92 | 340 | 2.0 | 10.0 | 0.00 | 0.00 | 0.00 | 59 | 1017.5 |
| 20260903155100 | 92 | 340 | 4.0 | 10.0 | 0.00 | 0.00 | 0.00 | 60 | 1017.6 |
| 20260903154610 | 92 | 315 | 5.0 | 10.0 | 0.00 | 0.00 | 0.00 | 59 | 1017.5 |
| 20260903154100 | 92 | 269 | 4.0 | 10.0 | 0.00 | 0.00 | 0.00 | 61 | 1017.5 |
| 20260903153559 | 92 | 261 | 4.0 | 9.0 | 0.00 | 0.00 | 0.00 | 61 | 1017.6 |
| 20260903153108 | 91 | 267 | 2.0 | 9.0 | 0.00 | 0.00 | 0.00 | 63 | 1017.6 |
| 20260903152600 | 91 | 273 | 3.0 | 9.0 | 0.00 | 0.00 | 0.00 | 63 | 1017.5 |
| 20260903152102 | 91 | 244 | 4.0 | 9.0 | 0.00 | 0.00 | 0.00 | 63 | 1017.4 |
| 20260903151608 | 90 | 270 | 4.0 | 10.0 | 0.00 | 0.00 | 0.00 | 63 | 1017.5 |
| 20260903151057 | 90 | 270 | 5.0 | 10.0 | 0.00 | 0.00 | 0.00 | 64 | 1017.5 |
| 20260903150600 | 90 | 267 | 2.0 | 11.0 | 0.00 | 0.00 | 0.00 | 66 | 1017.5 |
| 20260903150111 | 89 | 345 | 5.0 | 11.0 | 0.00 | 0.00 | 0.00 | 65 | 1017.5 |
| 20260903145559 | 89 | 258 | 4.0 | 11.0 | 0.00 | 0.00 | 0.00 | 64 | 1017.5 |
| 20260903145056 | 89 | 269 | 4.0 | 10.0 | 0.00 | 0.00 | 0.00 | 66 | 1017.5 |
| 20260903144607 | 88 | 313 | 5.0 | 10.0 | 0.00 | 0.00 | 0.00 | 66 | 1017.6 |
| 20260903144058 | 88 | 274 | 5.0 | 9.0 | 0.00 | 0.00 | 0.00 | 66 | 1017.5 |
| 20260903143558 | 88 | 309 | 4.0 | 9.0 | 0.00 | 0.00 | 0.00 | 66 | 1017.5 |
| 20260903143112 | 88 | 273 | 5.0 | 10.0 | 0.00 | 0.00 | 0.00 | 67 | 1017.5 |
| 20260903142600 | 87 | 304 | 4.0 | 11.0 | 0.00 | 0.00 | 0.00 | 68 | 1017.6 |
| 20260903142056 | 87 | 262 | 4.0 | 11.0 | 0.00 | 0.00 | 0.00 | 69 | 1017.6 |
| 20260903141614 | 87 | 265 | 5.0 | 11.0 | 0.00 | 0.00 | 0.00 | 68 | 1017.5 |
| 20260903141057 | 87 | 277 | 3.0 | 9.0 | 0.00 | 0.00 | 0.00 | 70 | 1017.6 |
| 20260903140600 | 86 | 276 | 4.0 | 10.0 | 0.00 | 0.00 | 0.00 | 70 | 1017.6 |
| 20260903140107 | 86 | 286 | 5.0 | 10.0 | 0.00 | 0.00 | 0.00 | 70 | 1017.7 |
| 20260903135601 | 85 | 265 | 3.0 | 9.0 | 0.00 | 0.00 | 0.00 | 71 | 1017.7 |
| 20260903135100 | 85 | 279 | 4.0 | 9.0 | 0.00 | 0.00 | 0.00 | 71 | 1017.5 |
| 20260903134605 | 84 | 0 | 3.0 | 9.0 | 0.00 | 0.00 | 0.00 | 74 | 1017.6 |
| 20260903134100 | 84 | 280 | 4.0 | 10.0 | 0.00 | 0.00 | 0.00 | 74 | 1017.7 |
| 20260903133556 | 83 | 273 | 5.0 | 10.0 | 0.00 | 0.00 | 0.00 | 74 | 1017.7 |
| 20260903133111 | 83 | 261 | 4.0 | 10.0 | 0.00 | 0.00 | 0.00 | 76 | 1017.8 |
| 20260903132556 | 82 | 250 | 4.0 | 11.0 | 0.00 | 0.00 | 0.00 | 76 | 1017.7 |
| 20260903132059 | 82 | 250 | 4.0 | 11.0 | 0.00 | 0.00 | 0.00 | 77 | 1017.8 |
| 20260903131603 | 82 | 250 | 4.0 | 9.0 | 0.00 | 0.00 | 0.00 | 78 | 1017.8 |
| 20260903131100 | 81 | 257 | 3.0 | 9.0 | 0.00 | 0.00 | 0.00 | 78 | 1017.9 |
| 20260903130559 | 81 | 270 | 4.0 | 10.0 | 0.00 | 0.00 | 0.00 | 78 | 1018.0 |
| 20260903130105 | 80 | 265 | 4.0 | 10.0 | 0.00 | 0.00 | 0.00 | 80 | 1018.0 |
| 20260903125559 | 80 | 266 | 3.0 | 9.0 | 0.00 | 0.00 | 0.00 | 80 | 1018.0 |
| 20260903125100 | 79 | 255 | 4.0 | 9.0 | 0.00 | 0.00 | 0.00 | 81 | 1018.0 |
| 20260903124607 | 79 | 256 | 3.0 | 10.0 | 0.00 | 0.00 | 0.00 | 82 | 1018.2 |
| 20260903124056 | 78 | 266 | 4.0 | 10.0 | 0.00 | 0.00 | 0.00 | 82 | 1017.9 |
| 20260903123559 | 78 | 255 | 2.0 | 9.0 | 0.00 | 0.00 | 0.00 | 82 | 1018.0 |
| 20260903123105 | 77 | 271 | 1.0 | 9.0 | 0.00 | 0.00 | 0.00 | 83 | 1017.9 |
| 20260903122556 | 77 | 242 | 3.0 | 9.0 | 0.00 | 0.00 | 0.00 | 83 | 1018.1 |
| 20260903122056 | 77 | 227 | 3.0 | 8.0 | 0.00 | 0.00 | 0.00 | 84 | 1018.1 |
| 20260903121600 | 76 | 243 | 2.0 | 7.0 | 0.00 | 0.00 | 0.00 | 84 | 1018.1 |
| 20260903121056 | 76 | 281 | 3.0 | 7.0 | 0.00 | 0.00 | 0.00 | 84 | 1018.1 |
| 20260903120559 | 76 | 238 | 2.0 | 7.0 | 0.00 | 0.00 | 0.00 | 84 | 1018.1 |
| 20260903120107 | 76 | 263 | 3.0 | 6.0 | 0.00 | 0.00 | 0.00 | 84 | 1018.0 |
| 20260903115558 | 76 | 223 | 2.0 | 6.0 | 0.00 | 0.00 | 0.00 | 84 | 1018.1 |
| 20260903115059 | 76 | 260 | 3.0 | 6.0 | 0.00 | 0.00 | 0.00 | 84 | 1018.0 |
| 20260903114605 | 76 | 247 | 2.0 | 6.0 | 0.00 | 0.00 | 0.00 | 84 | 1017.9 |
| 20260903114056 | 75 | 244 | 2.0 | 7.0 | 0.00 | 0.00 | 0.00 | 85 | 1017.9 |
| 20260903113559 | 75 | 0 | 1.0 | 7.0 | 0.00 | 0.00 | 0.00 | 85 | 1017.8 |
| 20260903113102 | 75 | 248 | 0.0 | 4.0 | 0.00 | 0.00 | 0.00 | 85 | 1017.9 |
| 20260903112557 | 75 | 0 | 1.0 | 4.0 | 0.00 | 0.00 | 0.00 | 85 | 1017.8 |
| 20260903112100 | 75 | 267 | 1.0 | 3.0 | 0.00 | 0.00 | 0.00 | 85 | 1017.7 |
| 20260903111604 | 75 | 264 | 0.0 | 4.0 | 0.00 | 0.00 | 0.00 | 85 | 1017.5 |
| 20260903111059 | 75 | 259 | 1.0 | 5.0 | 0.00 | 0.00 | 0.00 | 85 | 1017.5 |
| 20260903110556 | 75 | 257 | 1.0 | 6.0 | 0.00 | 0.00 | 0.00 | 85 | 1017.4 |
| 20260903110103 | 75 | 241 | 1.0 | 7.0 | 0.00 | 0.00 | 0.00 | 85 | 1017.3 |
| 20260903105559 | 75 | 243 | 2.0 | 7.0 | 0.00 | 0.00 | 0.00 | 85 | 1017.4 |
| 20260903105059 | 75 | 288 | 2.0 | 8.0 | 0.00 | 0.00 | 0.00 | 85 | 1017.4 |
| 20260903104607 | 75 | 275 | 2.0 | 8.0 | 0.00 | 0.00 | 0.00 | 85 | 1017.3 |
| 20260903104056 | 75 | 273 | 2.0 | 9.0 | 0.00 | 0.00 | 0.00 | 85 | 1017.1 |